Hourly Data Report for October 28, 2016

All times are specified in Local Standard Time (LST). Add 1 hour to adjust for Daylight Saving Time where and when it is observed.

KITCHENER/WATERLOO
ONTARIO

43°27'39.000" N
80°22'43.000" W
321.60 m
6144239
71368
YKF

Download Data

Hourly Data (October 2016)
Hourly Data Report for October 28, 2016
Temp Definition
°C
Dew Point Temp Definition
°C
Rel Hum Definition
%
Wind Dir Definition
10's deg

Wind Spd Definition
km/h
Visibility Definition
km
Stn Press Definition
kPa
Hmdx Definition


Wind Chill Definition


Weather Definition


TIME
00:00 Legend Double Dagger -0.2 -1.3 92 29 15 16.1 98.29   -5 LegendNANA
01:00 Legend Double Dagger -0.7 -1.6 94 29 13 16.1 98.34   -5 LegendNANA
02:00 Legend Double Dagger -0.8 -1.7 94 30 11 16.1 98.38   -5 LegendNANA
03:00 Legend Double Dagger -1.4 -2.1 95 29 11 16.1 98.41   -5 LegendNANA
04:00 Legend Double Dagger -1.6 -2.3 95 29 11 16.1 98.45   -5 LegendNANA
05:00 Legend Double Dagger -1.9 -2.6 95 29 11 16.1 98.53   -6 LegendNANA
06:00 Legend Double Dagger -2.1 -2.8 95 30 9 16.1 98.59   -6 LegendNANA
07:00 Legend Double Dagger -2.3 -3.0 95 29 11 16.1 98.62   -6 LegendNANA
08:00 Legend Double Dagger -0.4 -1.4 93 33 5 16.1 98.65   -2 LegendNANA
09:00 Legend Double Dagger 2.0 -0.3 85 33 9 16.1 98.68     LegendNANA
10:00 Legend Double Dagger 4.3 0.7 77 LegendMM 4 16.1 98.69     LegendNANA
11:00 Legend Double Dagger 6.5 0.2 64 29 15 16.1 98.66     LegendNANA
12:00 Legend Double Dagger 8.1 1.1 61 19 5 16.1 98.58     LegendNANA
13:00 Legend Double Dagger 9.2 2.4 63 22 17 16.1 98.51     LegendNANA
14:00 Legend Double Dagger 9.8 1.9 58 20 17 16.1 98.47     LegendNANA
15:00 Legend Double Dagger 9.9 2.3 59 23 15 16.1 98.44     LegendNANA
16:00 Legend Double Dagger 8.8 1.9 62 21 13 16.1 98.39     LegendNANA
17:00 Legend Double Dagger 8.0 1.2 62 19 18 16.1 98.35     LegendNANA
18:00 Legend Double Dagger 6.8 1.3 68 19 17 16.1 98.30     LegendNANA
19:00 Legend Double Dagger 6.6 2.3 74 18 11 16.1 98.24     LegendNANA
20:00 Legend Double Dagger 6.8 3.2 78 19 13 16.1 98.21     LegendNANA
21:00 Legend Double Dagger 7.3 4.1 80 17 18 16.1 98.04     LegendNANA
22:00 Legend Double Dagger 7.0 4.3 83 17 15 16.1 97.98     LegendNANA
23:00 Legend Double Dagger 6.7 4.4 85 16 13 16.1 97.89     LegendNANA

Notes on Data Quality.

Legend

  • E = Estimated
  • M = Missing
  • NA = Not Available
  • ‡ = Partner data that is not subject to review by the National Climate Archives
Date modified: